Toronto Pearson, Ontario

10:58 AM EST on December 14, 2017 (GMT -0500)
Toronto-Pearson International

Weather History for CYYZ - October, 2013

Change the Weather History Date:

Monday, October 28, 2013

  Actual Average Record
Temperature  
Mean Temperature 39 °F -  
Max Temperature 45 °F 46 °F 69 °F (2014)
Min Temperature 32 °F 31 °F 28 °F (2011)
Degree Days  
Heating Degree Days 26    
Moisture  
Dew Point 27 °F    
Average Humidity 59    
Maximum Humidity 81    
Minimum Humidity 34    
Precipitation  
Precipitation 0.00 in 0.09 in - ()
Sea Level Pressure  
Sea Level Pressure 30.23 in    
Wind  
Wind Speed 10 mph ()    
Max Wind Speed 17 mph    
Max Gust Speed 26 mph    
Visibility 15.0 miles    
Events      
Averages and records for this station are not official NWS values.
T = Trace of Precipitation, MM = Missing Value Source: Averaged Metar Reports

Daily Weather History Graph

Daily Weather History Graph

Search for Another Location

Airport or City:

Trip Planner

Search our weather history database for the weather conditions in past years. The results will help you decide how hot, cold, wet, or windy it might be!

Date:

Astronomy

Oct. 28, 2013 Rise Set
Actual Time 7:49 AM EDT 6:14 PM EDT
Civil Twilight 7:19 AM EDT 6:44 PM EDT
Nautical Twilight 6:46 AM EDT 7:17 PM EDT
Astronomical Twilight 6:12 AM EDT 7:51 PM EDT
Moon 1:29 AM EDT (10/28) 3:05 PM EDT (10/28)
Length of Visible Light 11h 24m
Length of Day
10h 25m
Waning Crescent, 34% of the Moon is Illuminated
Oct 28
Waning Crescent
Nov 3
New
Nov 10
First Quarter
Nov 17
Full
Nov 25
Last Quarter

Hourly Weather History & Observations

Time (EDT) Temp. Windchill Dew Point Humidity Pressure Visibility Wind Dir Wind Speed Gust Speed Precip Events Conditions
12:00 AM 42.8 °F 39.3 °F 32.0 °F 66% 30.01 in 15.0 mi South 5.8 mph - N/A   Overcast
1:00 AM 42.8 °F 38.6 °F 32.0 °F 66% 30.01 in 15.0 mi SSW 6.9 mph - N/A   Overcast
2:00 AM 45 °F - 34 °F 54% 30.01 in 15 mi WSW 16.1 mph - -   Overcast
2:00 AM 44.6 °F 37.4 °F 33.8 °F 66% 30.01 in 15.0 mi WSW 16.1 mph 21.9 mph N/A   Overcast
3:00 AM 42.8 °F 36.2 °F 33.8 °F 70% 30.01 in 15.0 mi WSW 12.7 mph - N/A   Overcast
4:00 AM 41.0 °F 34.3 °F 33.8 °F 76% 30.03 in 15.0 mi WSW 11.5 mph - N/A   Mostly Cloudy
5:00 AM 41.0 °F 34.7 °F 35.6 °F 81% 30.06 in 15.0 mi West 10.4 mph - N/A   Mostly Cloudy
6:00 AM 41.0 °F 35.2 °F 35.6 °F 81% 30.09 in 15.0 mi West 9.2 mph - N/A   Overcast
7:00 AM 41.0 °F 35.2 °F 35.6 °F 81% 30.12 in 15.0 mi West 9.2 mph - N/A   Mostly Cloudy
8:00 AM 43 °F - 36 °F 70% 30.17 in 15 mi NNW 16.1 mph - -   Overcast
8:00 AM 42.8 °F 35.1 °F 35.6 °F 76% 30.17 in 15.0 mi North 16.1 mph 26.5 mph N/A   Overcast
9:00 AM 42.8 °F 35.1 °F 32.0 °F 66% 30.22 in 15.0 mi NNW 16.1 mph 23.0 mph N/A   Scattered Clouds
10:00 AM 41.0 °F 32.5 °F 30.2 °F 65% 30.26 in 15.0 mi North 17.3 mph - N/A   Scattered Clouds
11:00 AM 42.8 °F 34.8 °F 24.8 °F 49% 30.29 in 15.0 mi North 17.3 mph - N/A   Scattered Clouds
12:00 PM 44.6 °F 38.4 °F 24.8 °F 46% 30.31 in 15.0 mi North 12.7 mph 20.7 mph N/A   Scattered Clouds
1:00 PM 44.6 °F 38.4 °F 21.2 °F 39% 30.32 in 15.0 mi North 12.7 mph - N/A   Scattered Clouds
2:00 PM 44.6 °F 38.8 °F 17.6 °F 34% 30.33 in 15.0 mi North 11.5 mph - N/A   Partly Cloudy
3:00 PM 44.6 °F 39.7 °F 21.2 °F 39% 30.34 in 15.0 mi North 9.2 mph - N/A   Partly Cloudy
4:00 PM 44.6 °F 38.8 °F 19.4 °F 37% 30.35 in 15.0 mi North 11.5 mph - N/A   Partly Cloudy
5:00 PM 42.8 °F 40.1 °F 19.4 °F 39% 30.36 in 15.0 mi North 4.6 mph - N/A   Partly Cloudy
6:00 PM 41.0 °F 34.3 °F 21.2 °F 45% 30.37 in 15.0 mi North 11.5 mph - N/A   Partly Cloudy
7:00 PM 39.2 °F 32.5 °F 21.2 °F 49% 30.38 in 15.0 mi North 10.4 mph - N/A   Partly Cloudy
8:00 PM 37 °F - 21 °F 40% 30.40 in 15 mi NNE 10.4 mph - -   Clear
8:00 PM 37.4 °F 30.3 °F 21.2 °F 52% 30.40 in 15.0 mi NNE 10.4 mph - N/A   Partly Cloudy
9:00 PM 33.8 °F 27.0 °F 21.2 °F 60% 30.41 in 15.0 mi NNE 8.1 mph - N/A   Clear
10:00 PM 33.8 °F 27.7 °F 23.0 °F 65% 30.43 in 15.0 mi North 6.9 mph - N/A   Clear
11:00 PM 32.0 °F 23.6 °F 23.0 °F 69% 30.43 in 15.0 mi North 10.4 mph - N/A   Clear